| time (UTC) | temp C | wind direction | speed KPH | gust KPH | rain 1hr cm | rain 24hr cm | rain mn cm | humidity % | barometer mb |
| 20260504013021 | 19 | 105 | 0.0 | 1.6 | 0.00 | 0.03 | 0.03 | 53 | 1017.3 |
| 20260504011520 | 20 | 103 | 0.0 | 3.2 | 0.00 | 0.03 | 0.03 | 52 | 1017.4 |
| 20260504010019 | 20 | 140 | 0.0 | 3.2 | 0.00 | 0.03 | 0.03 | 51 | 1017.3 |
| 20260504004521 | 21 | 104 | 0.0 | 3.2 | 0.00 | 0.03 | 0.03 | 50 | 1017.2 |
| 20260504003023 | 22 | 255 | 0.0 | 3.2 | 0.00 | 0.03 | 0.03 | 49 | 1017.3 |
| 20260504001517 | 22 | 138 | 1.6 | 12.9 | 0.00 | 0.03 | 0.03 | 47 | 1017.5 |
| 20260504000012 | 22 | 156 | 0.0 | 3.2 | 0.00 | 0.03 | 0.03 | 48 | 1017.6 |
| 20260503234504 | 22 | 132 | 0.0 | 6.4 | 0.00 | 0.03 | 0.03 | 51 | 1017.6 |
| 20260503233010 | 23 | 123 | 0.0 | 11.3 | 0.00 | 0.03 | 0.03 | 50 | 1017.8 |
| 20260503231515 | 22 | 182 | 0.0 | 3.2 | 0.00 | 0.03 | 0.03 | 50 | 1017.8 |
| 20260503230022 | 23 | 277 | 1.6 | 6.4 | 0.00 | 0.03 | 0.03 | 46 | 1017.6 |
| 20260503224503 | 25 | 59 | 1.6 | 16.1 | 0.00 | 0.03 | 0.03 | 41 | 1017.7 |
| 20260503223023 | 25 | 24 | 1.6 | 9.7 | 0.00 | 0.03 | 0.03 | 43 | 1018.2 |
| 20260503221514 | 25 | 223 | 1.6 | 9.7 | 0.00 | 0.03 | 0.03 | 44 | 1018.3 |
| 20260503220019 | 26 | 225 | 3.2 | 8.0 | 0.00 | 0.05 | 0.03 | 43 | 1018.5 |
| 20260503214524 | 24 | 280 | 1.6 | 9.7 | 0.00 | 0.05 | 0.03 | 44 | 1018.7 |
| 20260503213024 | 25 | 128 | 1.6 | 9.7 | 0.00 | 0.05 | 0.03 | 42 | 1019.2 |
| 20260503211509 | 25 | 113 | 1.6 | 9.7 | 0.00 | 0.05 | 0.03 | 41 | 1019.3 |
| 20260503210016 | 26 | 189 | 1.6 | 11.3 | 0.00 | 0.05 | 0.03 | 40 | 1019.7 |
| 20260503204522 | 25 | 180 | 1.6 | 16.1 | 0.00 | 0.08 | 0.03 | 41 | 1019.9 |
| 20260503203038 | 25 | 142 | 1.6 | 12.9 | 0.00 | 0.08 | 0.03 | 43 | 1020.1 |
| 20260503201509 | 26 | 281 | 3.2 | 12.9 | 0.00 | 0.08 | 0.03 | 36 | 1020.5 |
| 20260503200016 | 26 | 146 | 3.2 | 11.3 | 0.00 | 0.10 | 0.03 | 40 | 1020.7 |
| 20260503194521 | 26 | 292 | 0.0 | 8.0 | 0.00 | 0.10 | 0.03 | 40 | 1020.8 |
| 20260503193025 | 26 | 117 | 1.6 | 12.9 | 0.00 | 0.13 | 0.03 | 39 | 1021.2 |
| 20260503191523 | 26 | 254 | 3.2 | 16.1 | 0.00 | 0.13 | 0.03 | 43 | 1021.3 |
| 20260503190013 | 26 | 360 | 0.0 | 6.4 | 0.00 | 0.13 | 0.03 | 40 | 1021.5 |
| 20260503184526 | 26 | 136 | 1.6 | 11.3 | 0.00 | 0.15 | 0.03 | 42 | 1021.7 |
| 20260503183028 | 26 | 201 | 1.6 | 11.3 | 0.00 | 0.15 | 0.03 | 47 | 1021.9 |
| 20260503181528 | 25 | 75 | 3.2 | 12.9 | 0.00 | 0.15 | 0.03 | 43 | 1022.2 |
| 20260503180030 | 25 | 118 | 0.0 | 12.9 | 0.00 | 0.18 | 0.03 | 47 | 1022.5 |
| 20260503174517 | 25 | 121 | 3.2 | 11.3 | 0.00 | 0.20 | 0.03 | 49 | 1022.7 |
| 20260503173042 | 25 | 257 | 1.6 | 6.4 | 0.00 | 0.20 | 0.03 | 41 | 1022.7 |
| 20260503171534 | 24 | 272 | 1.6 | 6.4 | 0.00 | 0.23 | 0.03 | 46 | 1022.9 |
| 20260503081513 | 10 | 24 | 0.0 | 0.0 | 0.00 | 0.46 | 0.00 | 92 | 1021.7 |
| 20260503071524 | 10 | 24 | 0.0 | 0.0 | 0.00 | 0.48 | 0.00 | 92 | 1022.1 |
| 20260503054511 | 11 | 24 | 0.0 | 0.0 | 0.00 | 0.51 | 0.00 | 91 | 1022.3 |
| 20260503053017 | 11 | 24 | 0.0 | 0.0 | 0.00 | 0.51 | 0.00 | 91 | 1022.4 |
| 20260503051526 | 11 | 24 | 0.0 | 0.0 | 0.00 | 0.51 | 0.00 | 91 | 1022.4 |
| 20260503050024 | 11 | 24 | 0.0 | 0.0 | 0.00 | 0.53 | 0.00 | 90 | 1022.3 |
| 20260503044530 | 11 | 24 | 0.0 | 0.0 | 0.00 | 0.53 | 0.53 | 90 | 1022.3 |
| 20260503043015 | 11 | 24 | 0.0 | 0.0 | 0.00 | 0.53 | 0.53 | 89 | 1022.3 |
| 20260503041520 | 12 | 24 | 0.0 | 0.0 | 0.00 | 0.53 | 0.53 | 89 | 1022.0 |
| 20260503040030 | 12 | 24 | 0.0 | 0.0 | 0.00 | 0.53 | 0.53 | 88 | 1022.0 |
| 20260503034526 | 12 | 24 | 0.0 | 0.0 | 0.00 | 0.56 | 0.53 | 87 | 1022.1 |
| 20260503033048 | 12 | 24 | 0.0 | 0.0 | 0.00 | 0.56 | 0.53 | 86 | 1021.9 |
| 20260503031517 | 13 | 24 | 0.0 | 0.0 | 0.00 | 0.56 | 0.53 | 85 | 1021.8 |
| 20260503030025 | 13 | 24 | 0.0 | 0.0 | 0.00 | 0.56 | 0.53 | 83 | 1021.9 |
| 20260503024524 | 13 | 24 | 0.0 | 0.0 | 0.00 | 0.56 | 0.53 | 83 | 1021.6 |
| 20260503023041 | 14 | 24 | 0.0 | 0.0 | 0.00 | 0.56 | 0.53 | 82 | 1021.3 |
| 20260503021529 | 15 | 24 | 0.0 | 0.0 | 0.00 | 0.58 | 0.53 | 77 | 1021.0 |
| 20260503020018 | 15 | 24 | 0.0 | 0.0 | 0.00 | 0.58 | 0.53 | 71 | 1021.0 |
| 20260503014530 | 16 | 24 | 0.0 | 0.0 | 0.00 | 0.58 | 0.53 | 68 | 1021.0 |